User: anonymous   Login
Location: Unspecified
(0.0000°N, 0.0000°E)
Time: 00:20:53
(UTC+00:00)
Language:

USA 169 - Orbit

View from above orbital plane
View from above orbital plane
View from above satellite
View from above satellite

Ground track
Ground track

The orbit data is extracted from the following two-line orbital elements,

1 27711U 03012A   17026.13342669 0.00000000  00000-0  00000-0 0    07
2 27711   7.1918  53.6350 0003896 193.1165 166.8700  1.00270000    08
Epoch (UTC): 26 January 2017 03:12:08
Eccentricity: 0.0003896
inclination: 7.1918°
perigee height: 35770 km
apogee height: 35803 km
right ascension of ascending node: 53.6350°
argument of perigee: 193.1165°
revolutions per day: 1.00270000
mean anomaly at epoch: 166.8700°
orbit number at epoch: 0

The dashed part of the orbit path shows where the satellite is in the earth's shadow,  

DLR